Overall — Pipsico - Mini

Sunday 10 September 2023 · 64 finishers across every class · 3 laps for the winner

Complete overall finishing order for Pipsico - Mini.
Pos No. Rider Class Laps Time Behind Int Pace
1 #51A SMITH, JAYTIN SM 14-15 3 56:11 0:00 18:43
2 #43B SMITH, RYAN SM 12-13 3 57:00 +0:49 0:49 19:00
3 #17A POWERS, KARSON SM 14-15 3 58:09 +1:58 1:09 19:23
4 #38B MAZZOLA, BRENNAN SM 12-13 3 58:11 +2:00 0:02 19:23
5 #13A AL-AWAM, TORREN SM 14-15 3 58:52 +2:41 0:41 19:37
6 #67A BONANNO, ADIN SM 14-15 3 58:55 +2:44 0:03 19:38
7 #42A SCHLICKENMEYER, SEAN SM 14-15 3 58:57 +2:46 0:02 19:39
8 #47B HARRISON, EVAN SM 12-13 3 59:25 +3:14 0:28 19:48
9 #50A CACERES, AIDEN SM 14-15 3 1:00:21 +4:10 0:56 20:07
10 #19C CAWLEY, MASON MINI 12-13 3 1:00:49 +4:38 0:28 20:16
11 #18B EDMONDSON, TUCKER SM 12-13 3 1:01:16 +5:05 0:27 20:25
12 #25B HERTZLER, NOAH SM 12-13 3 1:01:17 +5:06 0:01 20:25
13 #21BZ YOST, TRACE SM 12-13 3 1:01:18 +5:07 0:01 20:26
14 #42C LACY, JACK MINI 12-13 3 1:01:29 +5:18 0:11 20:29
15 #66A LOWE, ALBERT SM 14-15 3 1:01:30 +5:19 0:01 20:30
16 #24A CHRIMES, CHASE SM 14-15 3 1:01:33 +5:22 0:03 20:31
17 #44B GEARHART, CADENCE SM 12-13 3 1:03:27 +7:16 1:54 21:09
18 #5A WESTON, BODIE SM 14-15 3 1:03:47 +7:36 0:20 21:15
19 #30B OLEARY, ASHTON SM 12-13 3 1:04:37 +8:26 0:50 21:32
20 #45B GREER, CALEB SM 12-13 3 1:04:39 +8:28 0:02 21:33
21 #99C CASH, CARSON MINI 12-13 3 1:05:28 +9:17 0:49 21:49
22 #42D COLLINS, JAXON MINI 9-11 3 1:05:45 +9:34 0:17 21:55
23 #22B FOUTZ, KELLEN SM 12-13 3 1:07:25 +11:14 1:40 22:28
24 #21K WIGGINS, MADDIX MINI 9-11K 3 1:07:27 +11:16 0:02 22:29
25 #35B AUSTIN, BRAYDEN SM 12-13 3 1:07:43 +11:32 0:16 22:34
26 #12K BURKHOLDER, BRADLEY MINI 9-11K 3 1:08:52 +12:41 1:09 22:57
27 #96C GREER, LOGAN MINI 12-13 3 1:09:10 +12:59 0:18 23:03
28 #51D RICE, DANE MINI 9-11 3 1:09:47 +13:36 0:37 23:15
29 #2E HARDMAN, SAVANNAH SM WOMEN 3 1:09:49 +13:38 0:02 23:16
30 #4D KERN, QUENTIN MINI 9-11 3 1:10:17 +14:06 0:28 23:25
31 #85D BUCHANAN, TUCKER MINI 9-11 3 1:10:19 +14:08 0:02 23:26
32 #22D BAKER, COHEN MINI 9-11 3 1:10:59 +14:48 0:40 23:39
33 #5D BAKKEN, DASH MINI 9-11 3 1:11:00 +14:49 0:01 23:40
34 #20E JACOBS, PEYTON SM WOMEN 3 1:11:33 +15:22 0:33 23:51
35 #24D OLEARY, NOLAN MINI 9-11 3 1:13:24 +17:13 1:51 24:28
36 #4B CALLOW,CAMRON SM 12-13 3 1:14:52 +18:41 1:28 24:57
37 #25K TORRES, TRISTIN MINI 9-11K 3 1:15:59 +19:48 1:07 25:19
38 #50K JOHNSON, LUCAS MINI 9-11K 2 54:08 1 lap 0:00 27:04
39 #26D LILLY, WYATT MINI 9-11 2 54:11 1 lap 0:03 27:05
40 #16C DODD, BENJAMIN MINI 12-13 2 55:24 1 lap 1:13 27:42
41 #10E PANCAKE, LILLIAN SM WOMEN 2 55:24 1 lap 0:00 27:42
42 #11EZ LOWE, FELICITY SM WOMEN 2 56:16 1 lap 0:52 28:08
43 #8E PANCAKE, DELILAH SM WOMEN 2 56:20 1 lap 0:04 28:10
44 #12D KUEBLER, CADEN MINI 9-11 2 57:35 1 lap 1:15 28:47
45 #30A BUFFINGTON, TREVOR SM 14-15 2 1:01:32 1 lap 3:57 30:46
46 #69D LILLY, COLE MINI 9-11 2 1:03:57 1 lap 2:25 31:58
47 #10K LAMB, BRANTLEY MINI 9-11K 2 1:06:49 1 lap 2:52 33:24
48 #19E MCKEITHAN, SAMANTHA SM WOMEN 2 1:08:51 1 lap 2:02 34:25
49 #58E LOHR, CAROLINE SM WOMEN 2 1:09:07 1 lap 0:16 34:33
50 #4E WINGO, BELLA SM WOMEN 2 1:10:39 1 lap 1:32 35:19
51 #14G RIDDLE, JESSICA TRL WOMEN 2 1:11:03 1 lap 0:24 35:31
52 #51K RICE, HOLTON MINI 9-11K 2 1:11:42 1 lap 0:39 35:51
53 #52B REYNOLDS, LUCAS SM 12-13 2 1:13:03 1 lap 1:21 36:31
54 #27G BENJAMAS SCHADE TRL WOMEN 2 1:19:31 1 lap 6:28 39:45
55 #51G PEEPLES, JILLLIAN TRL WOMEN 2 1:19:46 1 lap 0:15 39:53
56 #6G SIMON, AMY TRL WOMEN 2 1:21:04 1 lap 1:18 40:32
57 #57K BAKER, CAMDEN MINI 9-11K 2 1:21:10 1 lap 0:06 40:35
58 #48E LANDRUM, KINLEY SM WOMEN 2 1:21:15 1 lap 0:05 40:37
59 #15E HILLIAN, ELINOR SM WOMEN 2 1:28:47 1 lap 7:32 44:23
60 #77K LAMB, BRYSON MINI 9-11K 2 1:30:33 1 lap 1:46 45:16
61 #65D LILLY, RYDER MINI 9-11 1 33:31 2 laps 0:00 33:31
62 #11B SENTERS, ZEKE SM 12-13 1 33:41 2 laps 0:10 33:41
63 #23C NALLS, COLTON MINI 12-13 1 40:13 2 laps 6:32 40:13
64 #16K SCHILLUMEIT, SOPHIA MINI 9-11K 1 45:40 2 laps 5:27 45:40

Ranked the way the series ranks: most laps first, then least time. Behind is the deficit to the winner and is only shown where the lap count matches, because elapsed time says nothing across different lap counts — a rider a lap down shows the laps instead. Int is the gap to the rider immediately ahead.